Location: Heidgraben
(53.7081°N, 9.6576°E)
Time: 20:54:56
(UTC+00:00)

GP-B - Pass Details

Date: 05 July 2020
Orbit: 631 x 635 km, 89.8° (Epoch: 14 August)

Event Time Altitude Azimuth Distance (km) Brightness Sun altitude
Rises 22:01:50 0° 6° (N) 2,947 7.8 -11.5°
Reaches altitude 10° 22:04:15 10° 16° (NNE) 2,033 6.6 -11.6°
Maximum altitude 22:08:20 34° 82° (E) 1,043 4.1 -11.8°
Enters shadow 22:11:25 16° 141° (SE) 1,676 4.7 -11.9°
